When you browse on this site, cookies collect data to enhance your experience and personalize the content and advertising you see.
Visit our Privacy Policy to learn more. By continuing to use the site, you agree to this use of cookies and data.
  • In United Kingdom
  • List of Countries
  • For 7 days
  • Water Temperature
  • Satellite Maps
  • Weather Map
  • Weather Widgets
  • user-avatar
    Login

    Hourly Weather Vasyl'kivtsi

    Today, 25 June, Tuesday

    Time Temperature Precipitation Wind Pressure Humidity
    00:00 +19°C° 0 mm 3 mps 737 mmHg 96%
    01:00 +19°C° 0 mm 3 mps 737 mmHg 96%
    02:00 +18°C° 0 mm 4 mps 738 mmHg 97%
    03:00 +18°C° 0 mm 4 mps 738 mmHg 97%
    04:00 +18°C° 0 mm 4 mps 738 mmHg 97%
    05:00 +17°C° 0 mm 4 mps 738 mmHg 97%
    06:00 +18°C° 0 mm 4 mps 738 mmHg 94%
    07:00 +19°C° 0 mm 4 mps 739 mmHg 91%
    08:00 +20°C° 0 mm 4 mps 739 mmHg 88%
    09:00 +22°C° 0 mm 4 mps 739 mmHg 84%
    10:00 +23°C° 0 mm 4 mps 739 mmHg 80%
    11:00 +25°C° 0 mm 4 mps 740 mmHg 77%
    12:00 +25°C° 0 mm 4 mps 740 mmHg 75%
    13:00 +26°C° 0 mm 4 mps 740 mmHg 73%
    14:00 +26°C° 0 mm 4 mps 740 mmHg 71%
    15:00 +26°C° 0 mm 4 mps 740 mmHg 72%
    16:00 +26°C° 0 mm 4 mps 739 mmHg 72%
    17:00 +25°C° 0 mm 4 mps 739 mmHg 73%
    18:00 +23°C° 0 mm 4 mps 739 mmHg 76%
    19:00 +21°C° 0 mm 3 mps 739 mmHg 80%
    20:00 +20°C° 0 mm 2 mps 740 mmHg 83%
    21:00 +19°C° 0 mm 2 mps 740 mmHg 84%
    22:00 +18°C° 0 mm 2 mps 740 mmHg 85%
    23:00 +17°C° 0 mm 2 mps 740 mmHg 86%

    Tomorrow, 26 June, Wednesday

    Time Temperature Precipitation Wind Pressure Humidity
    00:00 +18°C° 0 mm 1 mps 740 mmHg 86%
    01:00 +16°C° 0 mm 1 mps 740 mmHg 86%
    02:00 +16°C° 0 mm 1 mps 740 mmHg 86%
    03:00 +16°C° 0 mm 1 mps 740 mmHg 87%
    04:00 +16°C° 0 mm 1 mps 740 mmHg 87%
    05:00 +16°C° 0 mm 1 mps 739 mmHg 88%
    06:00 +17°C° 0 mm 2 mps 739 mmHg 85%
    07:00 +19°C° 0 mm 2 mps 740 mmHg 81%
    08:00 +21°C° 0 mm 2 mps 740 mmHg 78%
    09:00 +23°C° 0 mm 2 mps 740 mmHg 73%
    10:00 +24°C° 0 mm 3 mps 739 mmHg 69%
    11:00 +25°C° 0 mm 3 mps 739 mmHg 65%
    12:00 +25°C° 0 mm 3 mps 739 mmHg 63%
    13:00 +26°C° 0 mm 3 mps 739 mmHg 61%
    14:00 +26°C° 0 mm 2 mps 739 mmHg 59%
    15:00 +26°C° 0 mm 2 mps 738 mmHg 61%
    16:00 +26°C° 0 mm 2 mps 737 mmHg 63%
    17:00 +26°C° 0 mm 2 mps 737 mmHg 65%
    18:00 +24°C° 0 mm 2 mps 736 mmHg 70%
    19:00 +23°C° 0 mm 2 mps 736 mmHg 74%
    20:00 +20°C° 0 mm 2 mps 735 mmHg 79%
    21:00 +19°C° 0 mm 2 mps 735 mmHg 81%
    22:00 +18°C° 0 mm 2 mps 735 mmHg 83%
    23:00 +17°C° 0 mm 2 mps 735 mmHg 85%

    Day after tomorrow, 27 June, Thursday

    Time Temperature Precipitation Wind Pressure Humidity
    00:00 +17°C° 0 mm 2 mps 734 mmHg 85%
    01:00 +16°C° 0 mm 3 mps 734 mmHg 85%
    02:00 +16°C° 0 mm 3 mps 733 mmHg 85%
    03:00 +16°C° 0 mm 3 mps 732 mmHg 85%
    04:00 +16°C° 0 mm 3 mps 732 mmHg 84%
    05:00 +16°C° 0 mm 3 mps 731 mmHg 84%
    06:00 +18°C° 0 mm 4 mps 731 mmHg 83%
    07:00 +20°C° 0 mm 4 mps 730 mmHg 82%
    08:00 +22°C° 0 mm 5 mps 730 mmHg 80%
    09:00 +23°C° 1 mm 5 mps 730 mmHg 79%
    10:00 +26°C° 1 mm 5 mps 729 mmHg 78%
    11:00 +27°C° 1 mm 5 mps 729 mmHg 77%
    12:00 +26°C° 1.9 mm 5 mps 729 mmHg 81%
    13:00 +24°C° 1.9 mm 6 mps 729 mmHg 84%
    14:00 +23°C° 1.9 mm 6 mps 728 mmHg 88%
    15:00 +23°C° 0.5 mm 6 mps 728 mmHg 86%
    16:00 +23°C° 0.5 mm 6 mps 728 mmHg 83%
    17:00 +23°C° 0.5 mm 6 mps 728 mmHg 80%
    18:00 +22°C° 0.1 mm 5 mps 728 mmHg 83%
    19:00 +20°C° 0.1 mm 5 mps 728 mmHg 86%
    20:00 +19°C° 0.1 mm 4 mps 728 mmHg 89%
    21:00 +18°C° 0 mm 4 mps 728 mmHg 90%
    22:00 +17°C° 0 mm 4 mps 728 mmHg 91%
    23:00 +15°C° 0 mm 4 mps 728 mmHg 93%

    28 June, Friday

    Time Temperature Precipitation Wind Pressure Humidity
    00:00 +15°C° 0 mm 4 mps 728 mmHg 93%
    01:00 +14°C° 0 mm 4 mps 729 mmHg 94%
    02:00 +14°C° 0 mm 4 mps 729 mmHg 94%
    03:00 +13°C° 0 mm 5 mps 729 mmHg 93%
    04:00 +12°C° 0 mm 5 mps 729 mmHg 91%
    05:00 +12°C° 0 mm 5 mps 729 mmHg 90%
    06:00 +12°C° 0 mm 5 mps 729 mmHg 86%
    07:00 +13°C° 0 mm 6 mps 729 mmHg 83%
    08:00 +14°C° 0 mm 7 mps 730 mmHg 79%
    09:00 +15°C° 0 mm 7 mps 730 mmHg 75%
    10:00 +15°C° 0 mm 7 mps 730 mmHg 70%
    11:00 +16°C° 0 mm 8 mps 730 mmHg 66%
    12:00 +17°C° 0.1 mm 8 mps 730 mmHg 65%
    13:00 +17°C° 0.1 mm 8 mps 730 mmHg 65%
    14:00 +18°C° 0.1 mm 8 mps 730 mmHg 64%
    15:00 +18°C° 0.1 mm 8 mps 730 mmHg 66%
    16:00 +17°C° 0.1 mm 7 mps 729 mmHg 69%
    17:00 +17°C° 0.1 mm 7 mps 729 mmHg 71%
    18:00 +16°C° 0 mm 6 mps 729 mmHg 76%
    19:00 +15°C° 0 mm 5 mps 729 mmHg 80%
    20:00 +14°C° 0 mm 4 mps 729 mmHg 85%
    21:00 +13°C° 0 mm 4 mps 729 mmHg 87%
    22:00 +12°C° 0 mm 3 mps 729 mmHg 89%
    23:00 +12°C° 0 mm 3 mps 729 mmHg 91%

    29 June, Saturday

    Time Temperature Precipitation Wind Pressure Humidity
    00:00 +11°C° 0 mm 3 mps 729 mmHg 92%
    01:00 +11°C° 0 mm 4 mps 729 mmHg 92%
    02:00 +11°C° 0 mm 4 mps 728 mmHg 93%
    03:00 +10°C° 0 mm 5 mps 729 mmHg 90%
    04:00 +10°C° 0 mm 5 mps 729 mmHg 86%
    05:00 +10°C° 0 mm 6 mps 729 mmHg 83%
    06:00 +10°C° 0 mm 7 mps 729 mmHg 83%
    07:00 +10°C° 0 mm 7 mps 729 mmHg 83%
    08:00 +10°C° 0 mm 8 mps 730 mmHg 82%
    09:00 +11°C° 0.1 mm 8 mps 730 mmHg 78%
    10:00 +12°C° 0.1 mm 8 mps 730 mmHg 73%
    11:00 +13°C° 0.1 mm 8 mps 730 mmHg 68%
    12:00 +13°C° 0.2 mm 8 mps 730 mmHg 67%
    13:00 +15°C° 0.2 mm 8 mps 730 mmHg 66%
    14:00 +15°C° 0.2 mm 8 mps 730 mmHg 64%
    15:00 +15°C° 0.3 mm 7 mps 730 mmHg 66%
    16:00 +15°C° 0.3 mm 7 mps 730 mmHg 67%
    17:00 +14°C° 0.3 mm 7 mps 730 mmHg 68%
    18:00 +13°C° 0 mm 6 mps 730 mmHg 73%
    19:00 +12°C° 0 mm 4 mps 731 mmHg 77%
    20:00 +11°C° 0 mm 3 mps 731 mmHg 82%
    21:00 +10°C° 0 mm 3 mps 731 mmHg 82%
    22:00 +10°C° 0 mm 3 mps 732 mmHg 83%
    23:00 +9°C° 0 mm 3 mps 732 mmHg 83%

    30 June, Sunday

    Time Temperature Precipitation Wind Pressure Humidity
    00:00 +9°C° 0 mm 3 mps 732 mmHg 85%
    01:00 +8°C° 0 mm 3 mps 732 mmHg 86%
    02:00 +8°C° 0 mm 3 mps 732 mmHg 88%
    03:00 +8°C° 0 mm 3 mps 732 mmHg 88%
    04:00 +7°C° 0 mm 4 mps 732 mmHg 88%
    05:00 +7°C° 0 mm 4 mps 732 mmHg 87%
    06:00 +10°C° 0 mm 4 mps 733 mmHg 83%
    07:00 +12°C° 0 mm 4 mps 733 mmHg 79%
    08:00 +13°C° 0 mm 5 mps 733 mmHg 75%
    09:00 +14°C° 0 mm 5 mps 733 mmHg 71%
    10:00 +15°C° 0 mm 6 mps 733 mmHg 67%
    11:00 +16°C° 0 mm 6 mps 734 mmHg 63%
    12:00 +17°C° 0 mm 6 mps 734 mmHg 62%
    13:00 +17°C° 0 mm 6 mps 734 mmHg 61%
    14:00 +17°C° 0 mm 6 mps 734 mmHg 60%
    15:00 +17°C° 0 mm 5 mps 734 mmHg 61%
    16:00 +17°C° 0 mm 5 mps 734 mmHg 63%
    17:00 +18°C° 0 mm 4 mps 734 mmHg 64%
    18:00 +17°C° 0 mm 3 mps 734 mmHg 69%
    19:00 +16°C° 0 mm 3 mps 734 mmHg 75%
    20:00 +15°C° 0 mm 2 mps 734 mmHg 81%
    21:00 +14°C° 0 mm 2 mps 734 mmHg 81%
    22:00 +13°C° 0 mm 2 mps 734 mmHg 82%
    23:00 +13°C° 0 mm 2 mps 734 mmHg 83%
    Show more